[Date Prev][Date Next][Thread Prev][Thread Next] - [Date Index][Thread Index][Author Index]
2 Line ISS Keps 11-25
- Subject: [sarex] 2 Line ISS Keps 11-25
- From: "Dave Larsen PhD" <doc@xxxxxxxxxxx>
- Date: Thu, 25 Nov 2004 02:43:36 -0800
ISS
1 25544U 98067A 04330.35439815 .00024668 00000-0 20037-3 0 2194
2 25544 51.6388 223.2445 0004454 46.6522 109.7888 15.70553992343633
----
Via the sarex mailing list at AMSAT.ORG courtesy of AMSAT-NA.
To unsubscribe, send "unsubscribe sarex" to Majordomo@amsat.org
AMSAT Home